SCP
0 0 -0 -0 -0 -0 0 0 0 0 0 0 0 0 0 0 0 0 0 0 0 0 0 0 0 0 0 0 0 0 0 0 0 1 1 1 1 1 1 1 0 0 0 0 0 0 0 0 1
0 0 -0 -0 -0 -0 0 0 0 0 0 0 0 0 0 0 0 0 0 0 0 0 0 0 0 0 0 0 0 0 0 0 0 0 0 1 1 1 1 1 1 1 0 0 0 0 0 1 1
0 0 -0 0 0 0 0 0 0 0 0 0 0 0 0 0 0 0 0 0 0 0 0 0 0 0 0 0 0 0 0 0 0 0 0 0 1 1 1 1 1 1 1 1 1 1 1 1 1
0 0 0 0 0 0 0 0 0 0 0 0 0 0 0 0 0 0 0 0 0 0 0 0 0 0 0 0 0 0 0 0 0 0 0 0 0 0 1 1 1 1 1 1 1 1 1 1 1
0 0 0 0 0 0 0 0 0 0 0 0 0 0 0 0 0 0 0 0 0 0 0 0 0 0 0 0 0 0 0 0 0 0 0 0 0 0 0 0 0 1 1 1 1 1 1 1 1
0 0 0 0 0 0 0 0 0 0 0 0 0 0 0 0 0 0 0 0 0 0 0 0 0 0 0 0 0 0 0 0 0 0 0 0 0 0 0 0 0 0 0 1 1 1 1 1 1
0 0 0 0 0 0 0 0 0 0 0 0 0 0 0 0 0 0 0 0 0 0 0 0 0 0 0 0 0 0 0 0 0 0 0 0 0 0 0 0 0 0 0 0 1 1 1 1 1
0 0 0 0 0 0 0 0 0 0 0 0 0 0 0 0 0 0 0 0 0 0 0 0 0 0 0 0 0 0 0 0 0 0 0 0 0 0 0 0 0 0 0 0 0 0 1 1 1
0 0 0 0 0 0 0 0 0 0 0 0 0 0 0 0 0 0 0 0 0 0 0 0 0 0 0 0 0 0 0 0 0 0 0 0 0 0 0 0 0 0 0 0 0 0 0 1 1
0 0 0 0 0 0 0 0 0 0 0 0 0 0 0 0 0 0 0 0 0 0 0 0 0 0 0 0 0 0 0 0 0 0 0 0 0 0 0 0 0 0 0 0 0 0 0 0 0
0 0 0 0 0 0 0 0 0 0 0 0 0 0 0 0 0 0 0 0 0 0 0 0 0 0 0 0 0 0 0 0 0 0 0 0 0 0 0 0 0 0 0 0 0 0 0 0 0
0 0 0 0 0 0 0 0 0 0 0 0 0 0 0 0 0 0 0 0 0 0 0 0 0 0 0 0 0 0 0 0 0 0 0 0 0 0 0 0 0 0 0 0 0 0 0 0 0
0 0 0 0 0 0 0 0 0 0 0 0 0 0 0 0 0 0 0 0 0 0 0 0 0 0 0 0 0 0 0 0 0 0 0 0 0 0 0 0 -0 -0 -0 0 0 0 0 0 0
0 0 0 0 0 0 0 0 0 0 0 0 0 0 0 0 0 0 0 0 0 0 0 0 0 0 0 0 0 0 0 0 0 0 0 0 0 0 0 0 0 0 0 0 -0 -0 0 0 0
0 0 0 0 0 0 0 0 0 0 0 0 0 0 0 0 0 0 0 0 0 0 0 0 0 0 0 0 0 0 0 0 0 0 0 0 0 0 0 0 0 0 0 0 0 -0 -0 -0 0
0 0 0 0 0 0 0 0 0 0 0 0 0 0 0 0 0 0 0 0 0 0 0 0 0 0 0 0 0 0 0 0 0 0 0 0 0 0 0 0 0 0 0 0 0 0 -0 -0 -0
0 0 0 0 0 0 0 0 0 0 0 0 0 0 0 0 0 0 0 0 0 0 0 0 0 0 0 0 0 0 0 0 0 0 0 0 0 0 0 0 0 0 0 0 0 0 0 -0 -0
0 0 0 0 0 0 0 0 0 0 0 0 0 0 0 0 0 0 0 0 0 0 0 0 0 0 0 0 0 0 0 0 0 0 0 0 0 0 0 0 0 0 0 0 0 0 0 0 -0
0 0 0 0 0 0 0 0 0 0 0 0 0 0 0 0 0 0 0 0 0 0 0 0 0 0 0 0 0 0 0 0 0 0 0 0 0 0 0 0 0 0 0 0 0 0 0 0 0
0 0 0 0 0 0 0 0 0 0 0 0 0 0 0 0 0 0 0 0 0 0 0 0 0 0 0 0 0 0 0 0 0 0 0 0 0 0 0 0 0 0 0 0 0 0 0 0 0
0 0 0 0 0 0 0 0 0 0 0 0 0 0 0 0 0 0 0 0 0 0 0 0 0 0 0 0 0 0 0 0 0 0 0 0 0 0 0 0 0 0 0 0 0 0 0 0 0
0 0 0 0 0 0 0 0 0 0 0 0 0 0 0 0 0 0 0 0 0 0 0 0 0 0 0 0 0 0 0 0 0 0 0 0 0 0 0 0 0 0 0 0 0 0 0 0 0
0 0 0 0 0 0 0 0 0 0 0 0 0 0 0 0 0 0 0 0 0 0 0 0 0 0 0 0 0 0 0 0 0 0 0 0 0 0 0 0 0 0 0 0 0 0 0 0 0
0 0 0 0 0 0 0 0 0 0 0 0 0 0 0 0 0 0 0 0 0 0 0 0 0 0 0 0 0 0 0 0 0 0 0 0 0 0 0 0 0 0 0 0 0 0 0 0 0
0 0 0 0 0 0 0 0 0 0 0 0 0 0 0 0 0 0 0 0 0 0 0 0 0 0 0 0 0 0 0 0 0 0 0 0 0 0 0 0 0 0 0 0 0 0 0 0 0
0 0 0 0 0 0 0 0 0 0 0 0 0 0 0 0 0 0 0 0 0 0 0 0 0 0 0 0 0 0 0 0 0 0 0 0 0 0 0 0 0 0 0 0 0 0 0 0 0
0 0 0 0 0 0 0 0 0 0 0 0 0 0 0 0 0 0 0 0 0 0 0 0 0 0 0 0 0 0 0 0 0 0 0 0 0 0 0 0 0 0 0 0 0 0 0 0 0
0 0 0 0 0 0 0 0 0 0 0 0 0 0 0 0 0 0 0 0 0 0 0 0 0 0 0 0 0 0 0 0 0 0 0 0 0 0 0 0 0 0 0 0 0 0 0 0 0
0 0 0 0 0 0 0 0 0 0 0 0 0 0 0 0 0 0 0 0 0 0 0 0 0 0 0 0 0 0 0 0 0 0 0 0 0 0 0 0 0 0 0 0 0 0 0 0 0
0 0 0 0 0 0 0 0 0 0 0 0 0 0 0 0 0 0 0 0 0 0 0 0 0 0 0 0 0 0 0 0 0 0 0 0 0 0 0 0 0 0 0 0 0 0 0 0 0
Wind_Speed
15 13 5 1 1 9 16 14 14 11 10 18 17 15 15 14 11 8 5 11 13 9 13 19 25 27 27 27 27 27 26 26 26 25 24 22 20 17 15 14 14 14 13 12 11 11 11 11 11
10 10 4 1 6 11 13 12 15 17 13 12 15 15 13 13 8 4 7 11 11 8 10 16 24 25 26 26 27 27 26 26 26 26 25 24 23 21 18 16 15 15 14 13 12 12 12 11 11
10 7 2 5 12 11 10 9 11 18 19 11 10 11 10 8 6 4 7 10 8 9 9 15 24 25 25 26 26 26 26 26 26 26 25 25 24 24 22 20 18 16 15 14 13 13 13 12 11
4 2 5 13 19 15 13 11 7 12 14 15 12 11 8 4 1 3 6 8 9 10 10 15 25 25 25 25 26 25 26 26 25 26 26 25 24 24 23 23 22 19 17 15 14 14 13 12 11
3 3 10 12 14 12 14 15 18 18 11 14 13 11 7 3 1 4 7 10 11 11 12 15 25 27 26 25 26 25 25 26 25 25 26 25 24 23 23 22 23 23 21 19 17 15 14 13 12
3 4 10 12 15 13 13 15 14 16 13 11 9 10 7 5 5 6 9 10 11 12 12 14 23 27 27 26 26 26 24 25 25 25 26 26 25 23 23 23 23 23 22 22 21 18 15 14 13
5 9 12 14 12 9 9 9 15 13 12 12 9 9 6 8 7 8 9 10 11 12 12 13 14 18 25 27 27 27 25 25 25 25 26 26 25 24 24 24 24 24 23 22 22 21 19 16 14
2 6 11 10 9 7 8 9 10 12 10 9 12 9 6 7 9 9 9 9 10 12 13 14 15 15 15 16 23 26 26 25 26 25 26 25 24 23 24 23 25 25 25 23 22 22 22 19 16
5 9 9 8 7 8 10 9 9 11 13 14 14 12 9 9 9 9 9 10 12 15 13 14 15 15 15 14 19 19 21 22 23 19 24 20 12 12 14 21 25 26 26 24 24 24 23 20 15
10 7 9 11 11 12 13 11 9 10 13 13 11 11 10 10 10 11 12 13 14 15 14 13 14 14 15 14 13 10 11 12 13 12 13 10 10 11 15 21 24 25 25 23 24 25 22 16 9
8 9 9 12 14 14 13 11 10 10 10 10 9 10 9 10 11 12 12 12 11 12 13 14 14 14 14 12 11 9 8 8 10 12 13 11 9 9 10 9 12 13 16 11 15 15 11 11 9
10 13 11 10 10 11 10 8 10 12 8 8 9 9 9 10 11 11 12 11 12 12 14 14 14 13 12 11 10 10 9 8 9 11 12 10 8 9 10 9 10 9 8 9 9 9 12 13 13
11 10 14 16 16 15 15 12 11 10 8 8 8 9 9 9 9 9 10 11 12 13 14 14 13 13 12 10 9 11 9 9 11 10 10 12 9 10 10 10 10 10 9 9 10 10 12 13 13
13 15 13 12 11 9 12 9 6 7 7 7 7 7 7 8 9 10 11 12 12 12 13 13 14 14 13 12 10 9 9 9 9 9 11 12 10 10 10 10 10 10 9 10 10 12 11 10 10
16 13 10 8 8 9 9 8 7 6 5 5 6 7 7 7 9 9 10 10 11 11 12 14 14 15 15 13 12 11 9 10 9 9 11 13 13 11 11 10 9 9 9 11 10 11 9 10 11
9 8 7 7 8 6 4 5 7 4 3 4 4 6 6 7 9 8 9 9 10 10 11 13 14 14 14 12 11 10 10 10 9 8 9 12 14 14 11 10 10 11 10 9 10 9 10 10 10
7 6 8 6 2 4 5 6 6 3 3 3 4 6 6 7 8 8 9 9 10 10 11 12 12 13 13 12 10 9 9 9 9 8 8 11 13 14 12 11 11 13 10 10 11 11 10 11 11
5 5 6 7 3 3 2 8 7 3 2 2 5 5 6 7 7 8 8 9 10 10 10 11 11 12 12 9 9 8 9 8 8 7 8 12 11 14 12 10 13 13 11 10 11 12 11 10 11
5 5 4 5 3 2 3 8 7 5 2 2 4 5 5 6 7 7 8 8 9 10 11 11 11 12 10 9 11 11 11 11 10 8 12 12 12 13 12 11 12 12 11 13 14 13 13 11 10
4 5 3 5 4 2 3 6 8 6 4 3 2 3 4 5 7 7 7 7 8 9 10 10 10 10 10 9 8 8 10 9 9 9 10 11 12 13 12 12 10 11 11 12 13 14 10 10 10
2 4 5 3 4 3 3 6 10 8 5 4 4 1 5 7 7 7 7 7 7 8 8 10 10 10 10 10 8 10 8 7 7 9 7 9 12 12 12 11 11 11 10 10 12 13 13 11 10
4 6 5 3 2 4 6 3 8 9 7 6 2 4 6 6 6 6 7 7 7 7 7 8 9 9 9 9 9 12 11 10 11 10 9 12 12 12 12 12 11 11 10 11 12 12 12 12 10
4 3 4 5 4 3 5 4 4 8 7 5 4 6 6 6 6 7 7 6 6 6 6 7 8 8 9 9 9 9 9 8 9 10 11 10 10 10 12 13 12 11 10 12 13 13 13 10 9
6 6 6 3 3 5 4 5 3 2 4 6 6 5 6 6 7 7 6 6 6 6 6 7 8 8 8 9 9 9 10 11 12 12 11 10 9 8 11 14 11 12 11 12 13 13 14 11 11
4 6 2 2 3 3 1 1 5 6 8 6 3 4 6 7 6 6 7 7 7 7 7 7 9 9 9 9 9 9 10 10 10 11 11 12 10 10 11 13 12 12 12 13 13 13 13 12 12
5 5 4 4 5 5 3 2 5 7 5 2 2 5 6 7 6 6 7 6 6 7 7 8 9 9 9 9 9 9 9 7 7 9 10 10 9 10 11 13 13 13 14 15 13 12 13 12 11
6 4 1 4 6 6 1 6 4 5 4 1 4 6 7 6 6 6 6 6 6 7 7 8 9 9 10 10 10 9 9 9 9 10 9 8 9 12 13 13 13 14 14 14 14 11 14 13 11
3 3 3 3 5 6 7 3 4 5 2 4 5 6 6 6 6 6 6 6 6 6 7 7 8 8 9 9 10 12 10 9 9 9 10 11 12 12 13 13 14 15 15 14 13 13 14 14 11
2 2 2 3 3 3 7 1 5 6 3 2 4 6 6 6 6 6 6 6 6 6 7 7 8 8 8 9 9 10 9 9 10 9 10 11 11 12 13 14 15 16 16 14 13 14 16 15 11
2 3 3 3 4 3 5 1 6 5 2 2 4 6 6 6 6 6 7 7 7 7 8 8 8 8 9 9 9 10 10 10 10 10 11 13 12 11 13 13 15 16 16 15 15 16 17 15 11
Wind_Direction
307 293 267 247 74 71 65 52 48 56 76 60 57 67 72 55 41 65 302 313 329 347 13 9 19 23 24 24 23 22 21 19 17 13 9 4 358 350 343 338 335 333 330 327 324 317 308 298 292
299 298 302 271 87 81 69 60 53 39 84 87 59 55 64 63 47 33 316 320 332 2 26 15 20 23 24 24 24 23 22 21 18 15 11 7 4 360 353 344 338 334 329 323 319 314 307 297 287
274 271 287 48 60 61 66 53 83 62 49 66 74 49 50 39 26 346 311 321 353 12 26 19 19 21 22 22 21 20 19 18 17 15 13 10 7 5 2 357 348 339 333 325 316 309 305 298 287
290 259 72 74 74 51 47 30 39 86 58 55 82 73 73 42 333 319 340 359 15 17 15 18 19 17 18 19 17 17 16 14 14 14 11 9 8 7 6 5 0 352 341 333 322 310 302 299 292
223 88 82 85 80 64 43 49 52 58 60 60 76 87 83 55 46 34 23 21 20 18 13 12 16 14 11 13 13 11 11 10 10 11 9 5 5 6 6 6 3 358 351 342 331 316 304 298 294
253 106 96 95 100 91 59 38 59 62 55 44 88 101 77 46 32 46 38 30 25 17 15 11 13 11 7 5 8 5 6 7 4 7 6 2 0 2 3 4 1 357 352 348 339 326 308 296 291
45 83 104 112 105 80 69 57 46 54 43 13 19 89 76 36 23 41 44 32 28 20 15 11 11 8 4 359 2 0 0 3 0 3 4 0 358 357 358 360 355 353 351 347 342 338 324 302 288
343 99 103 103 93 90 74 66 53 45 48 28 30 65 63 32 31 29 37 32 24 23 16 13 8 7 1 353 358 357 356 0 358 360 0 359 356 354 354 356 349 350 347 345 343 342 335 319 296
20 66 48 39 93 105 113 102 86 82 79 69 66 71 65 41 36 30 27 24 21 20 15 13 6 5 360 353 355 354 354 358 356 356 356 357 350 347 350 351 346 348 344 343 346 343 336 329 308
39 65 52 43 76 92 88 89 104 89 76 78 76 69 61 49 34 30 26 20 17 14 10 12 5 3 0 356 354 348 352 354 352 352 351 352 350 344 351 345 343 344 340 345 345 340 339 338 324
55 86 89 71 81 90 86 70 70 100 68 63 67 64 51 50 40 30 26 22 17 12 9 10 4 3 2 356 352 347 348 350 348 348 349 351 348 344 349 341 337 337 337 343 341 339 333 328 323
78 67 89 97 93 92 89 81 65 69 89 81 70 63 55 45 43 32 22 18 14 12 10 8 2 2 359 354 350 347 347 348 346 344 348 351 349 349 345 339 332 332 333 337 338 329 324 326 322
87 86 76 78 79 84 90 90 94 97 100 96 83 68 57 51 41 37 25 19 15 12 8 5 360 2 357 354 352 349 346 347 343 341 345 351 353 347 342 335 332 329 334 337 330 324 326 325 321
108 113 113 111 110 106 104 106 101 115 123 112 96 78 62 55 48 35 26 19 14 10 8 3 360 1 358 356 353 348 345 344 342 341 344 351 353 341 338 331 329 328 335 332 324 323 324 322 322
124 118 124 132 126 142 129 99 108 133 144 122 105 95 79 59 56 41 31 22 14 10 8 4 360 0 358 354 353 349 345 344 340 341 343 351 349 338 337 329 326 328 330 326 324 322 325 326 327
162 153 139 154 159 168 259 136 134 148 128 94 76 70 61 62 58 47 34 25 16 11 9 6 1 359 355 352 352 345 344 342 338 339 343 350 345 341 338 331 327 331 332 327 327 331 332 327 323
201 213 131 151 155 168 235 124 140 157 154 120 78 59 44 43 50 48 35 29 18 13 9 4 1 359 353 350 348 340 341 338 335 337 344 346 342 341 338 328 331 334 331 331 332 333 328 325 322
350 345 116 131 122 221 204 118 138 167 192 100 71 55 47 34 40 47 36 32 20 13 9 2 359 357 352 351 343 338 339 336 332 335 344 343 340 340 335 329 334 333 330 331 329 326 327 323 320
340 353 68 103 101 285 176 142 157 168 179 67 50 32 42 37 31 41 39 34 19 11 7 360 358 355 353 353 346 342 340 337 332 339 342 339 338 336 332 334 334 332 329 327 325 327 323 324 322
339 336 68 123 118 271 176 174 163 167 134 65 1 12 25 37 22 26 32 31 19 13 4 353 356 352 353 350 340 336 331 328 328 336 331 333 336 334 335 334 333 330 325 323 325 325 320 320 330
326 20 1 0 125 241 237 217 170 157 144 174 225 100 40 34 21 15 24 26 17 14 3 352 349 350 349 348 341 337 328 328 333 333 329 333 334 332 330 331 332 327 324 321 324 321 323 320 318
20 37 335 294 216 218 176 261 160 161 179 198 191 62 42 37 22 19 23 20 14 13 2 350 346 346 347 348 343 341 338 335 333 330 327 331 331 329 330 332 331 326 323 322 321 324 316 313 313
331 339 281 275 241 263 192 247 134 151 192 178 85 50 35 30 27 27 25 18 12 12 1 348 343 344 345 346 341 337 332 328 326 327 327 328 326 326 331 333 330 325 322 322 321 319 314 309 307
288 266 227 252 243 262 197 184 148 178 152 93 53 32 25 26 29 26 17 12 10 9 358 346 344 343 344 343 340 336 331 330 329 331 329 329 327 327 330 331 327 323 322 322 320 317 312 308 303
319 324 320 275 225 219 81 222 98 83 73 67 30 23 33 30 26 16 7 6 7 1 353 347 346 341 342 341 338 333 330 328 327 329 328 328 329 329 327 330 325 323 323 323 322 319 313 307 304
326 351 18 317 311 311 195 121 112 109 110 130 37 49 38 30 26 18 10 11 2 354 350 347 344 339 340 339 336 330 329 326 323 326 324 325 325 322 323 328 325 325 325 325 324 320 318 312 309
343 36 11 280 278 278 166 99 135 147 175 100 34 41 36 31 28 15 8 9 359 352 349 345 342 338 337 337 333 327 329 326 325 324 322 323 323 323 327 326 327 327 325 325 326 320 320 316 310
347 332 314 307 331 309 296 120 165 167 102 30 16 37 32 31 25 11 6 5 357 351 345 343 339 334 333 334 333 333 327 326 326 325 325 325 323 323 325 328 329 329 326 325 325 321 321 317 314
212 230 285 277 237 269 296 308 100 109 85 12 24 50 40 33 25 10 5 358 351 348 344 340 336 334 333 332 329 325 324 327 328 326 326 324 320 324 327 329 331 329 327 326 323 321 323 317 314
335 343 339 312 308 288 282 276 129 134 146 59 50 58 51 43 29 13 3 352 348 346 342 339 336 337 333 330 328 325 327 328 328 326 327 323 320 324 328 330 331 329 326 322 320 320 320 313 312